Temperature
20 20 20 20 20 19 19 19 19 19 19 18 18 18 18 18 18 18 18 17 17 17 17 17 17 17 17 17 16 16 16 16 16 16 16 16 16 16 16 16 16 16 16
21 20 20 20 20 20 20 19 19 19 18 18 18 18 18 18 18 18 18 17 17 17 17 17 17 16 16 16 16 16 16 16 16 16 16 16 16 16 16 16 16 16 16
20 20 20 20 20 20 20 19 19 19 18 18 18 18 18 18 18 18 17 17 17 17 17 17 16 16 16 16 16 16 16 16 16 16 16 16 16 16 16 16 16 16 16
20 20 20 20 20 20 19 19 19 18 18 18 18 18 18 18 18 17 17 17 17 17 16 16 16 16 16 16 16 16 16 16 15 15 15 15 15 15 15 15 15 15 15
20 20 20 20 20 19 19 19 19 18 18 18 18 18 18 17 17 17 17 17 17 16 16 16 16 16 16 16 16 16 15 15 15 15 15 15 15 15 15 15 15 15 15
20 20 20 19 19 19 19 18 18 18 18 18 18 17 17 17 17 17 17 17 16 16 16 16 16 16 16 16 15 15 15 15 15 15 15 15 15 15 15 14 14 14 14
20 20 19 19 19 19 18 18 18 18 18 17 17 17 17 17 17 16 16 16 16 16 16 16 16 16 15 15 15 15 15 15 15 15 15 15 15 14 14 14 14 14 14
20 19 19 19 19 18 18 18 18 17 17 17 17 17 17 17 16 16 16 16 16 16 16 16 15 15 15 15 15 15 15 15 15 15 14 14 14 14 14 14 13 13 13
19 19 19 18 18 18 18 18 17 17 17 17 17 17 17 16 16 16 16 16 15 15 15 15 15 15 15 14 14 15 15 14 14 14 14 14 13 13 13 13 13 13 13
18 18 18 18 18 18 17 17 17 17 17 17 16 16 16 16 16 15 15 15 15 15 15 15 14 14 15 14 14 14 14 14 14 13 13 13 13 13 13 13 13 12 12
18 17 17 17 17 17 17 17 17 16 16 16 16 16 16 16 15 15 15 15 15 14 14 14 14 14 14 14 14 14 14 13 13 13 13 13 13 13 13 13 12 12 12
17 17 16 16 16 16 16 16 16 16 16 16 15 15 15 15 15 15 15 14 14 14 14 14 14 14 14 14 13 13 13 13 13 13 13 13 13 13 12 12 12 12 12
16 16 16 16 16 16 16 15 15 15 15 15 15 14 14 14 14 14 14 14 14 14 14 14 14 14 13 13 13 13 13 12 12 12 12 12 12 12 12 12 12 12 12
15 15 15 15 15 15 15 15 15 15 15 14 14 14 14 14 14 14 14 14 14 13 13 13 13 13 13 13 13 13 12 12 12 12 12 12 12 11 11 11 11 11 11
15 15 15 15 15 15 15 14 14 14 14 14 14 14 14 14 14 14 13 13 13 13 13 13 13 13 12 12 12 12 12 12 12 12 12 11 11 11 11 11 11 11 11
14 15 14 14 14 14 14 14 14 14 14 14 14 14 13 13 13 13 13 13 13 13 12 12 12 12 12 12 12 12 12 12 12 11 11 11 11 11 11 11 10 10 10
14 14 14 14 14 14 13 13 13 13 13 13 13 13 13 13 13 13 13 13 12 12 12 12 12 12 12 12 11 11 11 11 11 11 11 10 10 10 10 10 10 10 10
14 14 14 13 13 13 13 13 13 13 13 13 13 13 13 12 12 12 12 12 12 11 11 11 11 11 11 11 11 11 11 11 10 10 10 10 10 10 10 10 9 9 9
13 13 13 13 13 13 13 13 13 13 12 12 12 12 12 12 12 12 12 12 11 11 11 11 11 11 11 11 10 10 10 10 10 10 10 10 9 9 9 9 9 9 9
13 12 12 12 12 12 12 12 12 12 12 12 12 12 12 11 11 11 11 11 11 11 10 10 10 10 10 10 10 10 9 9 9 9 9 9 9 9 9 9 9 8 8
12 12 12 12 12 12 12 12 12 12 12 12 11 11 11 11 11 11 10 10 10 10 10 10 10 9 9 9 9 9 9 9 9 9 9 9 9 8 8 8 8 8 8
12 12 12 11 11 11 11 11 11 11 11 11 11 11 10 10 10 10 10 10 10 10 9 9 9 9 9 9 9 9 9 8 8 8 8 8 8 8 8 8 8 7 7
11 11 11 11 11 11 11 11 10 10 10 10 10 10 10 10 10 9 9 9 9 9 9 9 9 9 9 8 8 8 8 8 8 8 8 8 8 8 7 7 7 7 7
11 11 11 11 11 11 10 10 10 10 10 10 10 9 9 9 9 9 9 9 9 9 8 8 8 8 8 8 8 8 7 7 7 7 7 7 7 7 7 7 7 7 7
10 10 10 10 10 10 10 10 10 9 9 9 9 9 9 9 9 8 8 8 8 8 8 8 8 8 8 8 8 8 7 7 7 7 7 7 7 7 7 7 7 6 6
10 10 10 10 10 9 9 9 9 9 9 9 9 8 8 8 8 8 8 8 8 8 8 8 7 7 7 7 7 7 7 7 7 7 7 6 7 7 6 6 6 6 6
Wind_Speed
11 10 9 8 8 7 7 7 6 5 5 4 4 4 4 4 5 5 5 4 4 4 4 4 4 3 3 2 2 3 3 3 5 4 3 3 3 4 3 3 4 4 4
10 9 9 8 8 9 9 8 7 6 6 5 5 4 5 4 4 6 6 6 6 6 5 4 4 3 3 3 3 4 4 5 4 5 3 2 3 3 3 3 3 3 4
8 9 9 9 9 10 9 8 7 6 6 5 5 5 5 5 5 6 6 6 6 6 5 5 5 4 4 4 4 4 4 4 4 4 4 2 2 2 2 3 3 3 3
8 9 10 10 10 9 7 6 6 6 6 6 5 5 5 5 5 5 5 5 5 5 5 5 5 5 5 4 4 4 3 3 2 3 3 3 2 2 2 2 3 2 3
7 8 10 8 7 6 6 6 6 6 7 6 5 5 4 4 5 5 5 5 5 5 5 5 5 5 6 5 4 4 3 3 3 3 3 2 2 2 2 2 3 3 3
5 7 5 5 6 6 7 7 6 6 6 6 6 6 5 5 5 6 5 5 5 5 5 4 4 4 5 5 5 5 5 4 4 3 3 4 4 3 3 2 2 2 3
4 4 4 4 5 6 7 6 6 7 7 6 6 6 6 6 6 6 5 4 4 4 4 4 3 3 4 3 3 3 3 4 6 5 5 5 5 4 3 3 3 4 4
2 3 4 5 5 5 6 7 7 6 6 6 6 6 5 5 5 5 4 3 3 4 4 5 4 4 3 3 2 2 2 2 3 4 4 5 5 4 4 4 4 4 4
2 3 4 4 5 5 6 6 6 5 6 5 5 5 5 5 6 6 5 3 3 4 4 4 4 4 4 4 3 2 2 2 2 2 4 4 5 5 4 3 2 2 3
5 4 4 4 5 6 6 5 4 4 5 4 5 5 6 5 6 7 6 3 3 3 2 2 4 4 4 4 3 3 3 4 3 3 2 3 3 3 3 4 4 3 3
3 2 3 4 4 5 3 3 3 3 3 4 4 3 4 5 5 6 7 4 4 4 3 3 2 3 3 3 3 3 5 4 2 2 2 2 2 2 2 3 4 4 4
2 2 3 3 4 3 3 3 2 3 3 3 3 3 2 3 4 5 7 6 5 4 4 3 3 4 3 3 3 4 4 2 1 1 2 2 3 3 3 3 3 4 5
2 2 2 2 2 3 3 3 2 2 3 3 3 4 3 2 3 5 6 7 6 4 3 4 4 3 3 2 3 3 3 2 1 1 2 3 3 4 3 2 2 2 3
3 3 2 2 2 2 2 2 3 3 4 4 4 4 3 3 3 3 3 3 3 3 2 3 3 2 2 2 1 2 2 2 2 3 3 3 3 2 2 2 2 2 2
3 3 3 2 3 2 2 2 3 4 6 6 5 5 5 5 5 6 5 3 3 3 3 1 1 1 1 1 1 1 1 1 2 2 3 3 3 2 2 2 2 2 2
4 3 3 2 2 2 1 1 2 3 5 6 7 7 5 6 6 5 5 6 6 7 4 2 2 2 3 2 2 2 2 2 2 2 2 3 3 3 2 2 2 2 3
5 4 3 3 3 3 2 2 2 3 2 1 2 4 4 5 5 5 5 5 5 7 3 3 3 3 3 3 3 3 3 3 2 2 3 3 3 3 3 3 2 2 2
4 4 4 3 3 3 3 3 3 3 1 1 2 0 2 2 3 5 7 6 3 3 3 3 3 3 3 3 3 3 3 3 2 3 3 3 3 3 3 3 3 3 3
3 3 2 2 2 3 3 3 3 3 2 1 0 1 3 3 4 4 5 3 3 3 3 3 3 3 3 3 3 3 3 3 3 3 3 3 3 3 3 3 3 4 3
3 4 4 3 2 2 2 2 2 2 2 2 2 1 2 2 1 1 1 1 2 2 3 3 3 3 3 3 3 3 3 3 3 3 4 3 3 4 4 4 4 3 4
2 2 2 1 2 2 2 2 2 2 2 2 2 2 4 3 2 2 2 2 2 3 3 3 3 3 3 2 2 3 3 4 4 4 4 4 4 4 4 4 4 4 4
1 1 1 1 1 1 1 2 2 2 2 2 1 1 3 2 2 2 2 2 3 3 3 3 3 3 3 3 3 3 3 4 4 4 4 4 4 4 4 4 3 3 3
1 1 1 1 1 1 1 1 1 1 2 2 2 2 2 2 2 2 2 2 2 2 2 3 3 3 3 3 3 4 4 5 5 4 4 4 4 4 4 3 4 3 3
1 1 1 1 1 2 1 1 1 2 2 2 2 2 2 2 2 3 3 2 3 3 3 3 4 5 5 4 4 4 5 5 5 5 6 6 5 4 4 4 4 4 4
2 2 2 1 1 1 1 1 1 2 2 2 2 2 2 2 3 3 3 3 3 3 4 4 4 4 5 5 5 5 5 5 5 5 5 5 5 5 5 5 4 4 4
2 2 2 2 1 1 1 2 2 2 2 2 2 2 2 2 2 2 2 2 3 3 3 3 4 5 5 5 5 5 5 5 5 5 5 4 5 4 5 4 5 5 4
Wind_Direction
200 203 206 206 204 202 206 216 217 215 211 212 214 215 217 220 214 209 219 216 219 232 231 222 233 232 235 235 227 225 220 213 249 273 265 277 277 283 293 279 267 263 266
200 199 205 204 201 206 213 216 210 209 210 210 210 214 222 224 216 216 223 221 220 228 232 227 239 233 233 236 229 235 233 222 229 264 277 278 272 280 281 280 283 281 278
196 198 204 208 209 213 215 215 209 208 209 209 209 217 227 227 220 221 223 223 223 228 227 226 232 225 238 239 232 240 245 241 229 245 273 279 277 285 290 289 293 291 292
197 201 207 211 213 215 214 215 215 212 211 213 215 221 225 228 225 224 222 222 226 230 231 228 229 225 232 235 238 238 236 234 233 244 262 272 273 283 279 284 294 291 290
199 209 215 214 210 208 208 210 212 213 215 208 208 220 224 225 231 224 222 224 225 233 239 235 233 231 229 226 233 232 224 227 232 242 258 266 267 275 271 272 278 294 284
203 212 215 205 202 206 208 207 205 210 211 203 207 215 222 233 235 224 216 221 222 227 236 238 237 235 232 230 228 226 219 221 228 235 249 252 257 255 261 264 268 283 286
200 206 206 206 206 208 207 202 207 211 210 211 215 214 222 234 230 224 216 212 217 223 225 229 239 239 229 235 237 238 245 239 224 223 239 246 251 247 247 259 254 255 260
211 213 208 202 204 203 203 210 212 207 209 217 219 217 219 228 216 212 207 204 216 225 225 223 225 238 228 209 218 240 261 263 244 233 234 247 254 250 236 239 246 255 265
231 230 219 208 210 211 213 217 215 209 213 214 214 211 213 223 207 200 191 197 216 231 233 224 217 224 220 192 189 223 268 285 284 262 249 258 264 260 233 222 230 244 264
239 237 225 212 213 217 221 221 212 205 208 207 219 215 210 218 211 204 193 194 210 224 231 231 221 207 189 177 188 204 240 266 284 302 297 297 291 279 233 225 227 238 255
255 252 238 221 223 225 220 213 206 199 198 204 214 218 212 213 213 209 198 197 206 211 215 222 222 191 182 184 188 205 223 237 259 268 279 288 291 287 271 244 230 229 239
227 229 244 243 236 227 213 213 198 186 198 213 218 231 235 220 207 208 206 208 202 203 212 211 203 187 191 198 203 213 214 215 225 246 272 283 286 286 285 268 247 243 246
203 231 246 248 237 213 199 206 201 191 201 219 219 228 240 236 221 215 215 214 204 197 202 194 190 186 190 201 206 208 197 192 208 244 264 271 274 276 278 280 273 267 270
205 227 233 229 238 226 209 208 206 211 213 217 221 225 231 231 228 214 209 203 186 177 170 156 157 169 179 191 205 206 202 205 214 242 261 270 279 279 272 271 272 286 294
219 226 235 231 227 230 229 236 234 231 219 213 218 210 212 231 233 209 200 203 198 186 158 141 135 142 177 207 224 239 233 223 231 251 259 269 277 279 284 287 269 263 255
220 228 223 228 239 233 229 304 300 255 247 227 222 216 220 220 209 204 199 186 176 166 151 171 202 210 215 224 233 244 245 246 244 246 255 260 266 266 274 298 294 266 264
215 223 220 217 222 228 222 218 275 329 6 348 246 217 203 198 195 185 164 151 153 151 156 185 208 217 220 225 230 237 246 248 243 237 248 257 261 264 266 263 262 258 262
219 223 224 227 227 223 227 222 219 225 248 338 356 49 143 157 166 163 149 130 128 147 179 197 215 229 230 231 235 241 247 247 242 246 253 257 258 259 261 258 254 247 247
224 221 221 228 232 234 229 216 212 215 208 196 152 51 94 105 105 125 141 150 171 190 201 215 223 230 233 236 237 236 238 245 249 252 257 258 259 256 254 253 251 248 241
231 232 228 218 225 229 218 199 188 189 190 185 189 184 149 128 124 134 149 172 192 203 210 221 230 228 228 233 236 237 243 250 253 256 260 261 257 253 249 248 245 243 246
227 237 232 224 214 203 205 203 190 180 184 195 212 201 172 170 179 195 203 200 216 225 221 226 231 228 228 230 235 238 246 254 256 258 260 258 252 251 249 246 242 240 243
204 207 182 183 202 198 196 187 186 179 186 198 212 178 166 172 184 201 220 231 230 230 232 232 239 241 236 228 227 236 246 254 260 263 262 255 249 246 240 244 245 244 243
168 162 143 146 156 163 171 173 174 182 192 194 189 183 185 195 199 213 234 249 249 249 244 236 240 246 242 235 229 230 243 251 253 254 256 253 248 245 238 234 236 250 248
155 167 173 179 152 146 159 175 193 205 202 194 196 201 205 203 207 222 236 248 253 253 247 243 244 243 243 243 235 235 242 249 251 245 244 244 243 238 232 232 233 239 242
150 164 161 168 160 150 167 207 215 213 207 200 200 201 207 213 224 237 243 247 253 260 263 261 252 243 241 247 250 252 248 244 244 244 242 240 239 232 228 230 233 238 240
155 160 156 151 145 158 186 211 222 222 217 214 210 209 210 215 227 239 249 255 264 272 272 267 257 253 252 251 256 257 244 240 241 237 233 239 237 230 229 231 235 234 235
Height
1517 1520 1522 1524 1527 1529 1531 1533 1534 1536 1538 1539 1540 1541 1541 1542 1543 1543 1543 1544 1544 1545 1544 1544 1544 1545 1545 1545 1545 1545 1544 1544 1542 1541 1541 1541 1540 1540 1539 1539 1538 1538 1537
1513 1516 1518 1520 1522 1524 1526 1528 1530 1532 1534 1535 1536 1537 1537 1538 1539 1539 1540 1540 1540 1541 1541 1541 1541 1541 1542 1541 1541 1541 1541 1540 1539 1538 1538 1537 1537 1536 1536 1535 1534 1534 1533
1509 1512 1514 1516 1518 1520 1522 1524 1526 1527 1529 1530 1531 1532 1533 1534 1535 1535 1535 1536 1536 1537 1537 1537 1537 1538 1538 1538 1538 1538 1537 1537 1536 1535 1534 1533 1533 1533 1532 1531 1530 1530 1529
1506 1508 1510 1511 1514 1516 1518 1520 1522 1524 1524 1526 1527 1528 1529 1530 1530 1531 1531 1531 1532 1532 1533 1533 1534 1534 1534 1534 1534 1534 1533 1533 1532 1531 1530 1530 1529 1529 1528 1527 1526 1526 1525
1502 1504 1506 1508 1510 1512 1514 1515 1518 1519 1520 1522 1523 1524 1525 1525 1526 1526 1527 1527 1527 1528 1528 1529 1530 1530 1530 1530 1530 1530 1529 1529 1528 1528 1527 1526 1526 1525 1525 1524 1523 1522 1521
1498 1500 1502 1504 1506 1508 1509 1511 1512 1514 1516 1517 1518 1519 1520 1520 1521 1521 1522 1522 1523 1523 1524 1525 1525 1526 1526 1526 1526 1526 1526 1525 1525 1524 1523 1522 1522 1521 1521 1520 1519 1518 1517
1495 1497 1499 1500 1501 1503 1505 1506 1506 1509 1511 1512 1513 1514 1515 1515 1516 1517 1517 1518 1518 1519 1520 1520 1521 1521 1522 1522 1522 1522 1521 1521 1521 1521 1519 1518 1518 1517 1517 1516 1515 1514 1513
1492 1494 1495 1496 1497 1499 1500 1501 1502 1504 1506 1507 1508 1509 1509 1510 1511 1512 1513 1514 1514 1514 1515 1516 1517 1517 1517 1517 1517 1517 1517 1517 1516 1516 1515 1514 1514 1513 1513 1512 1511 1511 1510
1489 1490 1491 1492 1494 1495 1496 1497 1498 1499 1500 1501 1502 1504 1504 1505 1507 1508 1509 1509 1509 1510 1511 1511 1512 1512 1513 1513 1513 1513 1513 1512 1512 1511 1511 1510 1510 1509 1509 1508 1507 1506 1505
1486 1485 1487 1489 1490 1491 1491 1492 1493 1494 1494 1496 1497 1498 1500 1501 1502 1503 1504 1504 1505 1505 1506 1507 1507 1508 1508 1508 1508 1508 1508 1508 1508 1507 1506 1506 1506 1505 1504 1503 1502 1502 1500
1482 1482 1484 1485 1486 1487 1487 1487 1488 1488 1490 1491 1492 1494 1495 1496 1497 1498 1499 1500 1500 1500 1501 1502 1503 1504 1504 1504 1504 1504 1503 1504 1503 1503 1502 1501 1501 1500 1499 1498 1498 1497 1496
1479 1480 1481 1481 1483 1483 1484 1483 1484 1484 1485 1487 1488 1489 1491 1492 1492 1493 1494 1495 1496 1496 1496 1497 1498 1499 1499 1499 1500 1499 1500 1499 1499 1498 1497 1496 1495 1495 1494 1493 1493 1492 1492
1475 1476 1477 1477 1479 1480 1480 1480 1480 1480 1482 1483 1484 1485 1486 1487 1488 1488 1489 1490 1491 1491 1491 1492 1493 1493 1494 1495 1495 1495 1495 1495 1495 1494 1493 1492 1491 1490 1489 1489 1488 1488 1487
1472 1472 1473 1473 1474 1475 1476 1476 1476 1477 1477 1478 1480 1480 1481 1482 1483 1483 1484 1485 1486 1486 1487 1487 1488 1489 1489 1490 1490 1491 1491 1491 1490 1489 1488 1488 1487 1486 1485 1484 1483 1483 1482
1469 1470 1470 1470 1471 1471 1472 1472 1472 1473 1474 1475 1475 1476 1477 1477 1478 1479 1479 1480 1481 1481 1482 1482 1483 1484 1484 1485 1485 1486 1486 1486 1485 1485 1484 1483 1482 1481 1480 1479 1478 1478 1477
1466 1466 1466 1467 1467 1468 1467 1468 1468 1470 1470 1471 1471 1472 1472 1473 1474 1474 1475 1476 1476 1477 1478 1478 1478 1479 1480 1480 1481 1481 1481 1482 1481 1480 1480 1479 1478 1476 1475 1475 1474 1473 1472
1461 1462 1462 1463 1463 1463 1463 1463 1464 1465 1466 1466 1467 1468 1469 1469 1470 1470 1470 1471 1472 1473 1474 1474 1475 1475 1475 1476 1476 1477 1477 1477 1476 1476 1475 1475 1474 1472 1471 1470 1470 1468 1468
1458 1458 1458 1459 1459 1459 1459 1459 1460 1460 1461 1462 1463 1463 1464 1465 1466 1466 1466 1467 1468 1469 1469 1470 1470 1471 1471 1472 1472 1472 1472 1472 1472 1471 1471 1470 1469 1468 1467 1466 1465 1464 1463
1453 1453 1454 1454 1455 1455 1455 1455 1456 1457 1457 1458 1459 1459 1460 1461 1462 1462 1463 1464 1464 1464 1465 1466 1466 1467 1467 1468 1468 1468 1468 1467 1467 1467 1466 1465 1464 1463 1462 1461 1460 1460 1459
1450 1450 1450 1450 1451 1451 1451 1451 1452 1453 1454 1455 1455 1456 1456 1457 1458 1459 1459 1460 1460 1461 1461 1462 1463 1463 1463 1463 1463 1463 1462 1462 1462 1462 1461 1460 1459 1458 1457 1456 1456 1455 1454
1446 1446 1447 1447 1447 1448 1448 1449 1449 1450 1451 1451 1452 1453 1454 1454 1455 1456 1456 1457 1457 1457 1458 1458 1459 1459 1459 1458 1458 1458 1458 1457 1457 1456 1456 1455 1454 1453 1452 1452 1451 1451 1450
1444 1444 1444 1444 1445 1445 1445 1446 1447 1447 1448 1449 1449 1450 1451 1451 1452 1452 1453 1453 1454 1454 1454 1455 1455 1455 1454 1454 1454 1453 1453 1452 1451 1451 1450 1449 1449 1448 1448 1447 1447 1446 1445
1441 1442 1442 1442 1442 1443 1443 1444 1444 1444 1445 1446 1446 1447 1448 1448 1448 1449 1449 1450 1450 1450 1450 1450 1450 1450 1450 1450 1449 1449 1448 1447 1446 1445 1445 1444 1443 1443 1443 1442 1442 1441 1441
1439 1440 1440 1441 1441 1441 1442 1442 1442 1443 1443 1443 1444 1444 1445 1445 1445 1445 1446 1446 1446 1446 1446 1446 1445 1445 1445 1445 1444 1444 1443 1442 1441 1440 1439 1439 1438 1438 1438 1438 1437 1437 1437
1437 1438 1438 1439 1439 1439 1439 1440 1440 1440 1441 1441 1441 1441 1442 1442 1442 1442 1442 1442 1442 1442 1441 1441 1440 1439 1439 1439 1438 1438 1437 1436 1435 1435 1434 1434 1433 1433 1433 1433 1433 1433 1433
1435 1436 1436 1437 1437 1437 1438 1438 1438 1438 1438 1438 1439 1438 1438 1438 1438 1439 1438 1438 1437 1437 1436 1436 1435 1434 1434 1433 1432 1432 1431 1430 1429 1429 1429 1429 1428 1428 1428 1429 1428 1428 1428